Regional Weather Roundup
Issued by NWS

Home | Current Version | Previous Version | Text Only | Print | Product List | Glossary On
Versions: 1 2 3 4 5 6 7 8 9 10 11 12 13 14 15 16 17 18 19 20 21 22 23 24 25 26 27 28 29 30 31 32 33 34 35 36 37 38 39 40 41 42 43 44 45 46 47 48 49 50
000
ASUS44 KMEG 211310
RWRTN
TENNESSEE HOURLY STATE WEATHER ROUNDUP
NATIONAL WEATHER SERVICE MEMPHIS TN
800 AM CDT MON AUG 21 2017

TNZ002-004-019-021-049-052-054-088>092-211400-
WEST TENNESSEE

CITY           SKY/WX    TMP DP  RH WIND       PRES   REMARKS
MEMPHIS INTL   MOSUNNY   82  75  79 CALM      30.14R
NWS MEMPHIS      N/A     80 N/A N/A MISG        N/A
JACKSON        SUNNY     77  75  93 CALM      30.15R
DYERSBURG      SUNNY     78  75  90 SE3       30.15R
SOMERVILLE     SUNNY     79  75  89 S3        30.13R
COVINGTON      SUNNY     75  73  94 CALM      30.14R
UNION CITY     SUNNY     75  70  83 CALM      30.14S
BOLIVAR        SUNNY     77  75  94 CALM      30.14R
PARIS          SUNNY     75  72  88 CALM      30.15S
HUNTINGDON     SUNNY     75  72  88 CALM      30.15R
LEXINGTON      CLOUDY    73  72  94 CALM      30.16R
SELMER         SUNNY     79  75  89 CALM      30.15R
SAVANNAH       SUNNY     75  73  94 CALM      30.16R
$$

TNZ008-025-027-028-033-062-065-066-211400-
NORTH MIDDLE TENNESSEE

CITY           SKY/WX    TMP DP  RH WIND       PRES   REMARKS
NASHVILLE      MOSUNNY   78  71  79 CALM      30.18R
PORTLAND       SUNNY     75  70  83 S3        30.19R
CLARKSVILLE    SUNNY     75  70  84 CALM      30.17R
SMYRNA         SUNNY     75  71  87 SE3       30.20R
COOKEVILLE     SUNNY     73  70  88 CALM      30.21R
GALLATIN       SUNNY     75  70  83 CALM      30.21R
CROSSVILLE     SUNNY     73  68  84 CALM      30.27R
$$

TNZ061-075-076-078-094-096-097-211400-
SOUTH MIDDLE TENNESSEE

CITY           SKY/WX    TMP DP  RH WIND       PRES   REMARKS
FAYETTEVILLE   SUNNY     75  70  83 CALM      30.20R
TULLAHOMA      SUNNY     75  68  78 CALM      30.22R
WINCHESTER     SUNNY     75  70  83 E3        30.21R
MCMINNVILLE    SUNNY     73  73 100 CALM      30.21R
COLUMBIA       SUNNY     72  72 100 CALM      30.17R
SHELBYVILLE    SUNNY     75  70  83 E5        30.19R
$$

TNZ017-018-042-046-047-211400-
NORTHEAST TENNESSEE

CITY           SKY/WX    TMP DP  RH WIND       PRES   REMARKS
TRI CITIES     MOSUNNY   73  69  87 CALM      30.27R
ELIZABETHTON   MOSUNNY   73  68  83 NE3       30.28R
$$

TNZ012-013-036-069-073-074-211400-
CENTRAL EAST TENNESSEE

CITY           SKY/WX    TMP DP  RH WIND       PRES   REMARKS
KNOXVILLE      MOSUNNY   74  68  81 CALM      30.22R
OAK RIDGE      CLOUDY    71  69  93 CALM      30.24R FOG
DOWNTOWN KNOXV SUNNY     73  72  94 CALM      30.23R
GATLINBURG     SUNNY     73  64  73 CALM      30.23S
MORRISTOWN     SUNNY     75  70  83 CALM      30.25R
JACKSBORO      SUNNY     72  70  94 CALM      30.28S
$$

TNZ083-085-099-211400-
SOUTHEAST TENNESSEE

CITY           SKY/WX    TMP DP  RH WIND       PRES   REMARKS
CHATTANOOGA    MOSUNNY   76  70  82 CALM      30.21R
DAYTON         SUNNY     73  73 100 CALM      30.21R
$$

SKY/WX REPORTED AS FAIR MEANS FEW OR NO CLOUDS BELOW
12 THOUSAND FEET.





USA.gov is the U.S. government's official web portal to all federal, state and local government web resources and services.